Weather History for Vegreville, AB

Change the Weather History Date:

Saturday, May 17, 2014

  Actual Average Record
Temperature  
Mean Temperature 48 °F -  
Max Temperature 65 °F - - ()
Min Temperature 31 °F - - ()
Degree Days  
Heating Degree Days 17    
Moisture  
Dew Point 36 °F    
Average Humidity 63    
Maximum Humidity 100    
Minimum Humidity 20    
Precipitation  
Precipitation 0.00 in - - ()
Sea Level Pressure  
Sea Level Pressure 29.96 in    
Wind  
Wind Speed 4 mph ()    
Max Wind Speed 10 mph    
Max Gust Speed -    
T = Trace of Precipitation, MM = Missing Value Source: Averaged Metar Reports

Daily Weather History Graph

Daily Weather History Graph

Search for Another Location

Airport:

Trip Planner

Search our weather history database for the weather conditions in past years. The results will help you decide how hot, cold, wet, or windy it might be!

Date:

Astronomy

May. 17, 2014 Rise Set
Actual Time 5:24 AM MDT 9:26 PM MDT
Civil Twilight 4:39 AM MDT 10:11 PM MDT
Nautical Twilight 3:34 AM MDT 11:17 PM MDT
Astronomical Twilight 1:57 AM MDT 12:52 AM MDT
Moon No Moon Rise 8:13 AM MDT (5/17)
Length of Visible Light 17h 32m
Length of Day
16h 01m
Waning Gibbous, 89% of the Moon is Illuminated
May 17
Waning Gibbous
May 21
Last Quarter
May 28
New
Jun 5
First Quarter
Jun 12
Full

Hourly Weather History & Observations

Time (MDT) Temp. Windchill Dew Point Humidity Pressure Visibility Wind Dir Wind Speed Gust Speed Precip Events Conditions
12:00 AM 42 °F - 38 °F 82% 30.09 in - SSW 2.3 mph - -  
12:00 AM 42.1 °F - 38.3 °F 86% 30.09 in - SSW 2.3 mph - N/A   Unknown
1:00 AM 38.1 °F 35.7 °F 35.2 °F 89% 30.09 in - South 3.5 mph - N/A   Unknown
2:00 AM 36.5 °F 33.9 °F 35.1 °F 95% 30.07 in - South 3.5 mph - N/A   Unknown
3:00 AM 34.5 °F 30.4 °F 34.2 °F 99% 30.06 in - South 4.6 mph - N/A   Unknown
4:00 AM 34.0 °F 31.0 °F 34.0 °F 100% 30.06 in - South 3.5 mph - N/A   Unknown
5:00 AM 31.3 °F 27.9 °F 31.3 °F 100% 30.05 in - South 3.5 mph - N/A   Unknown
6:00 AM 34 °F - 34 °F 100% 30.04 in - SSE 2.3 mph - -  
6:00 AM 34.3 °F - 34.3 °F 100% 30.04 in - SSE 2.3 mph - N/A   Unknown
7:00 AM 36.9 °F 34.3 °F 36.9 °F 100% 30.02 in - South 3.5 mph - N/A   Unknown
8:00 AM 43.0 °F - 42.1 °F 97% 30.02 in - South 2.3 mph - N/A   Unknown
9:00 AM 47.3 °F - 42.8 °F 84% 30.00 in - SE 1.2 mph - N/A   Unknown
10:00 AM 55.6 °F - 40.5 °F 57% 29.99 in - ESE 2.3 mph - N/A   Unknown
11:00 AM 57.4 °F - 37.8 °F 48% 29.98 in - ESE 5.8 mph - N/A   Unknown
12:00 PM 60 °F - 38 °F 31% 29.96 in - SE 5.8 mph - -  
12:00 PM 58.1 °F - 37.6 °F 46% 29.96 in - SE 5.8 mph - N/A   Unknown
1:00 PM 60.3 °F - 36.3 °F 41% 29.96 in - ESE 8.1 mph - N/A   Unknown
2:00 PM 60.6 °F - 34.9 °F 38% 29.94 in - SE 6.9 mph - N/A   Unknown
3:00 PM 62.4 °F - 35.1 °F 36% 29.92 in - East 10.4 mph - N/A   Unknown
4:00 PM 63.0 °F - 35.8 °F 36% 29.90 in - SE 4.6 mph - N/A   Unknown
5:00 PM 64.6 °F - 34.0 °F 32% 29.88 in - ESE 6.9 mph - N/A   Unknown
6:00 PM 65 °F - 34 °F 20% 29.86 in - East 8.1 mph - -  
6:00 PM 65.1 °F - 33.8 °F 31% 29.86 in - East 8.1 mph - N/A   Unknown
7:00 PM 63.3 °F - 34.3 °F 34% 29.85 in - ESE 6.9 mph - N/A   Unknown
8:00 PM 63.3 °F - 34.9 °F 35% 29.83 in - East 9.2 mph - N/A   Unknown
9:00 PM 59.4 °F - 37.0 °F 43% 29.81 in - East 9.2 mph - N/A   Unknown
10:00 PM 54.9 °F - 37.9 °F 53% 29.81 in - East 6.9 mph - N/A   Unknown
11:00 PM 54.5 °F - 39.6 °F 57% 29.80 in - East 6.9 mph - N/A   Unknown